This demonstration page uses our WeatherBlox Daily Observations layout. Learn more.

40.92945, -100.16068

Hourly Observations for May 28, 2018

Temp ( °F °C ) Dew Point ( °F °C ) Humidity (%) Winds ( mph kmh ) Pressure ( in mb ) Visibility ( mi km ) Precip ( " mm )
12:15 am 00:15 Clear with Nearby Thunderstorms 71 21.4 57 14 63 63 N 7 11 29.88 1012 10 16.0934 0 0
12:35 am 00:35 Clear with Nearby Thunderstorms 70 21.3 57 14 63 63 NNE 12 19 29.88 1012 10 16.0934 0 0
12:55 am 00:55 Partly Cloudy with Thunderstorms 70 21 58 14.2 65 65 Calm 29.88 1012 10 16.0934 0 0
1:15 am 01:15 Mostly Cloudy with Thunderstorms 71 21.4 57 14.1 63 63 W 20 31 29.94 1014 10 16.0934 0 0
1:35 am 01:35 Cloudy with Heavy Thunderstorms 69 20.4 59 14.8 70 70 N 21 33 29.88 1012 7 11.26538 0.05 1.27
1:55 am 01:55 Mostly Cloudy with Light Rain 67 19.2 60 15.5 79 79 N 10 17 29.91 1013 10 16.0934 0.11 2.794
2:15 am 02:15 Partly Cloudy 66 19 60 15.6 81 81 NNE 12 19 29.88 1012 10 16.0934 0 0
2:35 am 02:35 Clear 66 19 60 15.4 80 80 ENE 8 13 29.88 1012 10 16.0934 0 0
2:55 am 02:55 Partly Cloudy 66 18.9 60 15.5 81 81 E 8 13 29.88 1012 10 16.0934 0 0
3:15 am 03:15 Mostly Cloudy 65 18.6 60 15.5 82 82 Calm 29.88 1012 10 16.0934 0 0
3:35 am 03:35 Mostly Cloudy 66 18.8 60 15.6 82 82 E 7 11 29.88 1012 10 16.0934 0 0
3:55 am 03:55 Partly Cloudy 65 18.6 60 15.5 82 82 E 7 11 29.88 1012 10 16.0934 0 0
4:15 am 04:15 Clear 65 18.5 60 15.3 82 82 E 6 9 29.85 1011 10 16.0934 0 0
4:35 am 04:35 Clear 64 18 60 15.5 85 85 ENE 5 7 29.85 1011 10 16.0934 0 0
4:55 am 04:55 Clear 65 18.3 61 16 87 87 W 8 13 29.88 1012 10 16.0934 0 0
5:15 am 05:15 Partly Cloudy 64 18 62 16.5 91 91 N 7 11 29.88 1012 10 16.0934 0 0
5:35 am 05:35 Mostly Cloudy with Nearby Thunderstorms 65 18.1 62 16.5 90 90 ENE 7 11 29.88 1012 10 16.0934 0 0
5:55 am 05:55 Mostly Cloudy 65 18.1 61 16.2 89 89 NW 3 6 29.91 1013 10 16.0934 0 0
6:15 am 06:15 Cloudy with Nearby Thunderstorms 65 18.5 62 16.4 88 88 WNW 12 19 29.94 1014 10 16.0934 0 0
6:35 am 06:35 Mostly Cloudy with Light Rain 65 18.4 62 16.5 89 89 N 7 11 29.91 1013 10 16.0934 0 0
6:55 am 06:55 Mostly Cloudy 65 18.3 61 16 87 87 NNE 10 17 29.88 1012 10 16.0934 0.01 0.254
7:15 am 07:15 Mostly Cloudy with Nearby Thunderstorms 65 18.4 60 15.7 84 84 NE 9 15 29.91 1013 10 16.0934 0 0
7:35 am 07:35 Mostly Cloudy with Nearby Thunderstorms 65 18.3 60 15.3 83 83 E 13 20 29.91 1013 10 16.0934 0 0
7:55 am 07:55 Cloudy 66 18.9 60 15.3 80 80 NE 10 17 29.91 1013 10 16.0934 0 0
8:15 am 08:15 Cloudy 67 19.4 60 15.5 78 78 NE 10 17 29.85 1011 10 16.0934 0 0
8:35 am 08:35 Mostly Cloudy 68 20.1 60 15.7 76 76 NE 13 20 29.88 1012 10 16.0934 0 0
8:55 am 08:55 Mostly Cloudy 69 20.6 61 15.9 75 75 NE 8 13 29.88 1012 10 16.0934 0 0
9:15 am 09:15 Cloudy with Nearby Thunderstorms 69 20.3 62 16.5 79 79 NNW 10 17 29.91 1013 10 16.0934 0 0
9:35 am 09:35 Cloudy 69 20.5 61 16 76 76 NNE 13 20 29.91 1013 10 16.0934 0 0
9:55 am 09:55 Cloudy 69 20.7 61 16.3 76 76 NE 10 17 29.91 1013 10 16.0934 0 0
10:15 am 10:15 Cloudy 68 20.2 62 16.4 79 79 NW 15 24 29.94 1014 10 16.0934 0 0
10:35 am 10:35 Cloudy 65 18.6 61 16.1 85 85 NNW 20 31 29.97 1015 10 16.0934 0 0
10:55 am 10:55 Cloudy with Light Rain 65 18.2 62 16.5 90 90 N 20 31 29.97 1015 10 16.0934 0 0
11:15 am 11:15 Cloudy with Nearby Thunderstorms 65 18.5 61 16.1 86 86 N 22 35 29.97 1015 10 16.0934 0 0
11:35 am 11:35 Cloudy with Light Rain 66 19 61 16.1 83 83 N 25 41 29.97 1015 10 16.0934 0 0
11:55 am 11:55 Mostly Cloudy 67 19.3 60 15.8 80 80 NNE 26 43 29.94 1014 10 16.0934 0 0
12:15 pm 12:15 Partly Cloudy 68 20 60 15.5 75 75 NE 8 13 29.91 1013 10 16.0934 0 0
12:35 pm 12:35 Partly Cloudy 67 19.5 60 15.5 78 78 E 12 19 29.91 1013 10 16.0934 0 0
12:55 pm 12:55 Sunny 68 19.9 60 15.7 77 77 NE 28 44 29.88 1012 10 16.0934 0 0
1:15 pm 13:15 Sunny 68 20 59 15.2 74 74 ENE 23 37 29.88 1012 10 16.0934 0 0
1:35 pm 13:35 Sunny 67 19.7 59 15 74 74 NE 22 35 29.85 1011 10 16.0934 0 0
1:55 pm 13:55 Sunny 68 20 59 15.1 74 74 NE 22 35 29.85 1011 10 16.0934 0 0
2:15 pm 14:15 Sunny 68 20.1 60 15.6 75 75 NE 14 22 29.83 1010 10 16.0934 0 0
2:35 pm 14:35 Partly Cloudy with Nearby Thunderstorms 69 20.6 60 15.5 73 73 ENE 16 26 29.85 1011 10 16.0934 0 0
2:55 pm 14:55 Partly Cloudy 69 20.3 60 15.4 74 74 E 15 24 29.83 1010 10 16.0934 0 0
3:15 pm 15:15 Sunny 68 20.2 59 15.2 73 73 E 20 31 29.83 1010 10 16.0934 0 0
3:35 pm 15:35 Partly Cloudy 69 20.5 60 15.8 75 75 E 21 33 29.83 1010 10 16.0934 0 0
3:55 pm 15:55 Partly Cloudy with Nearby Thunderstorms 68 20.1 61 16.2 78 78 SE 12 19 29.85 1011 10 16.0934 0 0
4:15 pm 16:15 Sunny 69 20.4 62 16.5 78 78 SE 18 30 29.83 1010 10 16.0934 0 0
4:35 pm 16:35 Sunny 70 21 59 14.8 68 68 E 23 37 29.77 1008 10 16.0934 0 0
4:55 pm 16:55 Partly Cloudy 74 23.2 53 11.5 48 48 SE 18 30 29.74 1007 7 11.26538 0 0
5:15 pm 17:15 Partly Cloudy 77 24.8 49 9.2 37 37 ESE 17 28 29.71 1006 10 16.0934 0 0
5:35 pm 17:35 Mostly Cloudy 74 23.6 52 11.1 45 45 SE 15 24 29.77 1008 10 16.0934 0 0
5:55 pm 17:55 Partly Cloudy 74 23.3 51 10.4 44 44 ESE 24 39 29.74 1007 10 16.0934 0 0
6:15 pm 18:15 Partly Cloudy 76 24.4 48 9 38 38 ESE 23 37 29.71 1006 10 16.0934 0 0
6:35 pm 18:35 Partly Cloudy 76 24.2 49 9.5 39 39 SE 25 41 29.74 1007 10 16.0934 0 0
6:55 pm 18:55 Mostly Cloudy 72 22.3 52 11.2 50 50 ESE 25 41 29.74 1007 10 16.0934 0 0
7:15 pm 19:15 Partly Cloudy 73 22.7 51 10.3 46 46 SE 22 35 29.77 1008 10 16.0934 0 0
7:35 pm 19:35 Mostly Cloudy with Light Rain 71 21.6 53 11.9 54 54 SSE 21 33 29.83 1010 10 16.0934 0 0
7:55 pm 19:55 Cloudy with Light Rain 69 20.6 53 11.9 58 58 ESE 15 24 29.83 1010 10 16.0934 0 0
8:15 pm 20:15 Cloudy with Light Drizzle 68 20.2 54 12.4 61 61 SE 17 28 29.83 1010 10 16.0934 0 0
8:35 pm 20:35 Cloudy with Light Rain 66 18.9 56 13.2 70 70 S 21 33 29.88 1012 10 16.0934 0 0
8:55 pm 20:55 Cloudy with Light Rain 64 17.5 57 13.7 79 79 SSE 22 35 29.88 1012 10 16.0934 0.01 0.254
9:15 pm 21:15 Cloudy with Light Rain 63 17 57 14 83 83 SSE 22 35 29.88 1012 10 16.0934 0.01 0.254
9:35 pm 21:35 Cloudy with Light Rain 63 17 57 14 83 83 SSE 21 33 29.88 1012 10 16.0934 0.03 0.762
9:55 pm 21:55 Mostly Cloudy with Light Rain 64 17.7 57 13.8 78 78 SSE 21 33 29.88 1012 10 16.0934 0.04 1.016
10:15 pm 22:15 Cloudy with Light Rain 64 17.5 57 14 80 80 SSE 18 30 29.91 1013 10 16.0934 0 0
10:35 pm 22:35 Cloudy 63 17.3 57 14 81 81 S 17 28 29.91 1013 10 16.0934 0.01 0.254
10:55 pm 22:55 Cloudy 63 17.2 57 14 82 82 SSW 22 35 29.94 1014 10 16.0934 0.03 0.762
11:15 pm 23:15 Cloudy with Light Rain 63 17.1 58 14.4 84 84 SSW 23 37 29.94 1014 10 16.0934 0.02 0.508
11:35 pm 23:35 Cloudy with Rain 63 17 58 14.4 85 85 WSW 14 22 29.97 1015 7 11.26538 0.08 2.032
11:55 pm 23:55 Cloudy with Rain 62 16.4 58 14.6 89 89 W 16 26 30 1016 10 16.0934 0.12 3.048

Powered by AerisWeather